This is the latest recevied weather packets stored in our database for station/object 9W8AKN-L. If no packets are shown the sender has not sent any weather packets the latest 10 day(s).
| Time | Temp. | Humidity | Pressure | Rain* | Wind** | Luminosity | Snow |
|---|---|---|---|---|---|---|---|
| 1778073637 | 30° C | 75% | 1009.3 hPa | - | - | - | - |
| 1778072737 | 30° C | 77% | 1009.2 hPa | - | - | - | - |
| 1778071837 | 30° C | 76% | 1009 hPa | - | - | - | - |
| 1778070937 | 30° C | 81% | 1008.9 hPa | - | - | - | - |
| 1778070037 | 30° C | 76% | 1008.8 hPa | - | - | - | - |
| 1778069137 | 30° C | 75% | 1008.4 hPa | - | - | - | - |
| 1778068237 | 30° C | 75% | 1008.2 hPa | - | - | - | - |
| 1778067337 | 30.56° C | 71% | 1007.8 hPa | - | - | - | - |
| 1778066437 | 30.56° C | 71% | 1007.5 hPa | - | - | - | - |
| 1778065537 | 30.56° C | 72% | 1007.2 hPa | - | - | - | - |
| 1778064636 | 30.56° C | 72% | 1006.7 hPa | - | - | - | - |
| 1778063736 | 30.56° C | 72% | 1006.7 hPa | - | - | - | - |
| 1778062836 | 30.56° C | 71% | 1006.7 hPa | - | - | - | - |
| 1778061936 | 30.56° C | 71% | 1006.5 hPa | - | - | - | - |
| 1778061036 | 30.56° C | 73% | 1006.5 hPa | - | - | - | - |
| 1778060136 | 31.11° C | 72% | 1006 hPa | - | - | - | - |
| 1778059236 | 31.11° C | 74% | 1005.8 hPa | - | - | - | - |
| 1778058336 | 31.11° C | 73% | 1005.4 hPa | - | - | - | - |
| 1778056540 | 31.11° C | 76% | 1005.8 hPa | - | - | - | - |
| 1778055640 | 31.11° C | 78% | 1005.6 hPa | - | - | - | - |
| 1778054740 | 30.56° C | 77% | 1005.5 hPa | - | - | - | - |
| 1778053840 | 30.56° C | 73% | 1005.5 hPa | - | - | - | - |
| 1778052940 | 31.11° C | 79% | 1005.8 hPa | - | - | - | - |
| 1778052040 | 31.11° C | 82% | 1005.7 hPa | - | - | - | - |
| 1778051140 | 31.11° C | 82% | 1005.8 hPa | - | - | - | - |
* Rain since midnight (hover to see other rain measurements)
** Current wind speed in m/s (hover to see current wind gust speed)